114  
ASUS41 KALY 250410  
RWRALY  
 
NEW YORK STATE HOURLY WEATHER ROUNDUP  
NATIONAL WEATHER SERVICE ALBANY NY  
1200 AM EDT SAT SEP 25 2021  
 
NOTE: "FAIR" INDICATES FEW OR NO CLOUDS BELOW 12,000 FEET WITH NO  
SIGNIFICANT WEATHER AND/OR NO S TO VISIBILITY
.  
 
NYZ032-033-038>043-046>054-057>066-NYZ062>081-082-084-250500-  
EAST  
 
 
CITY SKY/WX TMP DP RH WIND PRES REMARKS
 
ALBANY CLEAR 52 51 97 CALM 30.06S  
GLENS FALLS CLEAR 49 48 97 CALM 30.06S  
POUGHKEEPSIE CLEAR 54 52 93 CALM 30.06S  
NEWBURGH CLEAR 55 54 94 CALM 30.07S  
MONTGOMERY CLEAR 52 51 97 W5 30.06F  
WHITE PLAINS CLEAR 55 51 86 NW6 30.07R  
ISLIP MOCLDY 65 56 72 NW3 30.06S  
NEW YORK CITY PTCLDY 68 50 52 NW5 30.06S  
CENTRAL PARK CLEAR 62 52 69 CALM 30.09S  

 
 
NYZ005>009-017-018-044>046-055-056-250500-  
CENTRAL  
 
 
CITY SKY/WX TMP DP RH WIND PRES REMARKS
 
FULTON CLEAR 50 48 93 CALM 30.03R  
SYRACUSE CLEAR 56 52 86 SE3 30.04R  
ROME CLEAR 51 49 92 E5 30.05S  
ELMIRA CLEAR 48 47 96 CALM 30.06R FOG  
BINGHAMTON CLEAR 54 47 77 SW6 30.06S  
MONTICELLO CLEAR 49 49 100 NW3 30.10S  

 
 
NYZ026>034-041>043-087-250500-  
NORTH  
 
 
CITY SKY/WX TMP DP RH WIND PRES REMARKS
 
WATERTOWN PTCLDY 52 49 89 CALM 30.03R  
FORT DRUM NOT AVBL  
OGDENSBURG FAIR 54 52 94 S5 30.00R  
MASSENA CLEAR 55 51 86 SW6 30.02S  
SARANAC LAKE CLEAR 51 47 86 SW6 30.04S  
PLATTSBURGH CLOUDY 56 52 86 CALM 30.03S  

 
 
NYZ001>004-010>016-019>021-085-250500-  
WEST  
 
 
CITY SKY/WX TMP DP RH WIND PRES REMARKS
 
NIAGARA FALLS CLEAR 53 49 86 CALM 30.01F  
BUFFALO CLEAR 55 50 83 S6 30.03S  
DUNKIRK CLEAR 59 50 72 S10 30.03S  
JAMESTOWN CLEAR 49 47 93 S5 30.08R  
WELLSVILLE CLEAR 52 46 80 W6 30.08F  
ROCHESTER CLEAR 53 51 93 SW3 30.04R  
PENN YAN CLEAR 52 48 86 VRB6 30.05S  

 
 
KEY  
WCI = WIND CHILL INDEX  
VSB = VISIBILITY  
HX = HEAT INDEX  

 
 
 
CLICK HERE TO GO TO PREVIOUS BULLETINS.

The Nexlab NY Page
The Nexlab VT Page
The Nexlab MA Page
The Nexlab CT Page Main Text Page